Time,TemperatureF,DewpointF,PressureIn,WindDirection,WindDirectionDegrees,WindSpeedMPH,WindSpeedGustMPH,Humidity,HourlyPrecipIn,Conditions,Clouds,dailyrainin,SoftwareType,DateUTC
2013-06-04 00:01:00,71.1,68.0,29.98,North,353,0.0,0.0,90,0.00,,,0.00,meteohub,2013-06-04 04:01:00,
2013-06-04 00:02:00,71.1,68.0,29.98,North,353,0.0,0.0,90,0.00,,,0.00,meteohub,2013-06-04 04:02:00,
2013-06-04 00:07:00,70.9,67.8,29.98,North,353,0.0,0.0,90,0.00,,,0.00,meteohub,2013-06-04 04:07:00,
2013-06-04 00:12:00,70.9,67.8,29.98,North,353,0.0,0.0,90,0.00,,,0.00,meteohub,2013-06-04 04:12:00,
2013-06-04 00:17:00,70.9,67.8,29.98,North,353,0.0,0.0,90,0.00,,,0.00,meteohub,2013-06-04 04:17:00,
2013-06-04 00:22:00,70.9,67.8,29.98,North,353,0.0,0.0,90,0.00,,,0.00,meteohub,2013-06-04 04:22:00,
2013-06-04 00:27:00,70.7,67.6,29.98,North,353,0.0,3.0,90,0.00,,,0.00,meteohub,2013-06-04 04:27:00,
2013-06-04 00:32:00,70.7,67.6,29.98,North,353,0.0,3.0,90,0.00,,,0.00,meteohub,2013-06-04 04:32:00,
2013-06-04 00:37:00,70.7,67.6,29.98,North,353,0.0,3.0,90,0.00,,,0.00,meteohub,2013-06-04 04:37:00,
2013-06-04 00:42:00,70.7,67.6,29.98,North,353,0.0,0.0,90,0.00,,,0.00,meteohub,2013-06-04 04:42:00,
2013-06-04 00:47:00,70.5,67.5,29.98,North,353,0.0,0.0,90,0.00,,,0.00,meteohub,2013-06-04 04:47:00,
2013-06-04 00:53:00,70.5,67.5,29.98,North,353,0.0,0.0,90,0.00,,,0.00,meteohub,2013-06-04 04:53:00,
2013-06-04 00:58:00,70.5,67.5,29.98,North,353,0.0,0.0,90,0.00,,,0.00,meteohub,2013-06-04 04:58:00,
2013-06-04 01:03:00,70.5,67.5,29.98,North,353,0.0,0.0,90,0.00,,,0.00,meteohub,2013-06-04 05:03:00,
2013-06-04 01:08:00,70.3,67.3,29.98,North,353,0.0,0.0,90,0.00,,,0.00,meteohub,2013-06-04 05:08:00,
2013-06-04 01:13:00,70.3,67.3,29.98,North,353,0.0,0.0,90,0.00,,,0.00,meteohub,2013-06-04 05:13:00,
2013-06-04 01:17:00,70.3,67.3,29.98,North,353,0.0,0.0,90,0.00,,,0.00,meteohub,2013-06-04 05:17:00,
2013-06-04 01:23:00,70.3,67.3,29.98,North,353,0.0,0.0,90,0.00,,,0.00,meteohub,2013-06-04 05:23:00,
2013-06-04 01:28:00,70.3,67.3,30.01,North,353,0.0,0.0,90,0.00,,,0.00,meteohub,2013-06-04 05:28:00,
2013-06-04 01:33:00,70.3,67.3,30.01,North,353,0.0,0.0,90,0.00,,,0.00,meteohub,2013-06-04 05:33:00,
2013-06-04 01:38:00,70.3,67.3,30.01,North,353,0.0,0.0,90,0.00,,,0.00,meteohub,2013-06-04 05:38:00,
2013-06-04 01:43:00,70.2,67.1,29.98,North,353,0.0,0.0,90,0.00,,,0.00,meteohub,2013-06-04 05:43:00,
2013-06-04 01:48:00,70.2,67.1,29.98,North,353,0.0,0.0,90,0.00,,,0.00,meteohub,2013-06-04 05:48:00,
2013-06-04 01:53:00,70.2,67.1,29.98,North,353,0.0,0.0,90,0.00,,,0.00,meteohub,2013-06-04 05:53:00,
2013-06-04 01:58:00,70.2,67.1,29.98,North,353,0.0,0.0,90,0.00,,,0.00,meteohub,2013-06-04 05:58:00,
2013-06-04 02:03:00,70.2,67.1,29.98,North,353,0.0,0.0,90,0.00,,,0.00,meteohub,2013-06-04 06:03:00,
2013-06-04 02:08:00,70.2,67.1,29.98,North,353,0.0,0.0,90,0.00,,,0.00,meteohub,2013-06-04 06:08:00,
2013-06-04 02:13:00,70.0,66.6,29.98,North,353,0.0,0.0,89,0.00,,,0.00,meteohub,2013-06-04 06:13:00,
2013-06-04 02:18:00,70.0,66.6,30.00,North,353,0.0,0.0,89,0.00,,,0.00,meteohub,2013-06-04 06:18:00,
2013-06-04 02:23:00,70.0,66.6,29.98,North,353,0.0,0.0,89,0.00,,,0.00,meteohub,2013-06-04 06:23:00,
2013-06-04 02:28:00,69.8,66.4,29.98,North,353,0.0,0.0,89,0.00,,,0.00,meteohub,2013-06-04 06:28:00,
2013-06-04 02:33:00,69.8,66.4,29.98,North,353,0.0,0.0,89,0.00,,,0.00,meteohub,2013-06-04 06:33:00,
2013-06-04 02:38:00,69.8,66.4,29.98,North,353,0.0,0.0,89,0.00,,,0.00,meteohub,2013-06-04 06:38:00,
2013-06-04 02:43:00,69.6,66.6,29.98,North,353,0.0,0.0,90,0.00,,,0.00,meteohub,2013-06-04 06:43:00,
2013-06-04 02:48:00,69.6,66.6,29.98,North,353,0.0,0.0,90,0.00,,,0.00,meteohub,2013-06-04 06:48:00,
2013-06-04 02:53:00,69.4,66.4,29.98,North,353,0.0,0.0,90,0.00,,,0.00,meteohub,2013-06-04 06:53:00,
2013-06-04 02:58:00,69.4,66.4,29.98,North,353,0.0,0.0,90,0.00,,,0.00,meteohub,2013-06-04 06:58:00,
2013-06-04 03:03:00,69.3,66.2,29.98,North,353,0.0,0.0,90,0.00,,,0.00,meteohub,2013-06-04 07:03:00,
2013-06-04 03:08:00,69.3,66.2,29.98,North,353,0.0,0.0,90,0.00,,,0.00,meteohub,2013-06-04 07:08:00,
2013-06-04 03:13:00,69.1,66.0,29.98,North,353,0.0,0.0,90,0.00,,,0.00,meteohub,2013-06-04 07:13:00,
2013-06-04 03:18:00,69.1,66.0,29.98,North,353,0.0,0.0,90,0.00,,,0.00,meteohub,2013-06-04 07:18:00,
2013-06-04 03:23:00,68.9,65.8,29.98,North,353,0.0,0.0,90,0.00,,,0.00,meteohub,2013-06-04 07:23:00,
2013-06-04 03:28:00,68.9,65.5,29.98,North,353,0.0,0.0,89,0.00,,,0.00,meteohub,2013-06-04 07:28:00,
2013-06-04 03:33:00,68.7,65.3,29.98,North,353,0.0,0.0,89,0.00,,,0.00,meteohub,2013-06-04 07:33:00,
2013-06-04 03:38:00,68.7,65.3,29.99,North,353,0.0,0.0,89,0.00,,,0.00,meteohub,2013-06-04 07:38:00,
2013-06-04 03:43:00,68.5,65.1,29.99,North,353,0.0,0.0,89,0.00,,,0.00,meteohub,2013-06-04 07:43:00,
2013-06-04 03:48:00,68.5,65.1,29.99,North,353,0.0,0.0,89,0.00,,,0.00,meteohub,2013-06-04 07:48:00,
2013-06-04 03:53:00,68.4,64.9,29.99,North,353,0.0,0.0,89,0.00,,,0.00,meteohub,2013-06-04 07:53:00,
2013-06-04 03:58:00,68.2,64.8,29.99,North,353,0.0,0.0,89,0.00,,,0.00,meteohub,2013-06-04 07:58:00,
2013-06-04 04:03:00,68.2,64.8,29.99,North,353,0.0,0.0,89,0.00,,,0.00,meteohub,2013-06-04 08:03:00,
2013-06-04 04:08:00,68.0,64.6,29.99,North,353,0.0,0.0,89,0.00,,,0.00,meteohub,2013-06-04 08:08:00,
2013-06-04 04:13:00,68.0,64.6,29.99,North,353,0.0,0.0,89,0.00,,,0.00,meteohub,2013-06-04 08:13:00,
2013-06-04 04:19:00,67.8,64.4,29.99,North,353,0.0,0.0,89,0.00,,,0.00,meteohub,2013-06-04 08:19:00,
2013-06-04 04:24:00,67.8,64.4,29.99,North,353,0.0,0.0,89,0.00,,,0.00,meteohub,2013-06-04 08:24:00,
2013-06-04 04:29:00,67.6,64.2,29.99,North,353,0.0,0.0,89,0.00,,,0.00,meteohub,2013-06-04 08:29:00,
2013-06-04 04:34:00,67.6,64.2,29.99,North,353,0.0,0.0,89,0.00,,,0.00,meteohub,2013-06-04 08:34:00,
2013-06-04 04:39:00,67.5,64.0,29.99,North,353,0.0,0.0,89,0.00,,,0.00,meteohub,2013-06-04 08:39:00,
2013-06-04 04:44:00,67.5,64.0,29.99,North,353,0.0,0.0,89,0.00,,,0.00,meteohub,2013-06-04 08:44:00,
2013-06-04 04:49:00,67.5,64.0,29.99,North,353,0.0,0.0,89,0.00,,,0.00,meteohub,2013-06-04 08:49:00,
2013-06-04 04:54:00,67.3,63.9,29.99,North,353,0.0,0.0,89,0.00,,,0.00,meteohub,2013-06-04 08:54:00,
2013-06-04 04:59:00,67.3,63.9,29.99,North,353,0.0,0.0,89,0.00,,,0.00,meteohub,2013-06-04 08:59:00,
2013-06-04 05:04:00,67.1,63.7,29.99,North,353,0.0,0.0,89,0.00,,,0.00,meteohub,2013-06-04 09:04:00,
2013-06-04 05:09:00,67.1,63.7,29.99,North,353,0.0,0.0,89,0.00,,,0.00,meteohub,2013-06-04 09:09:00,
2013-06-04 05:14:00,66.9,63.5,29.99,North,353,0.0,0.0,89,0.00,,,0.00,meteohub,2013-06-04 09:14:00,
2013-06-04 05:19:00,66.9,63.5,29.99,North,353,0.0,0.0,89,0.00,,,0.00,meteohub,2013-06-04 09:19:00,
2013-06-04 05:24:00,66.9,63.5,29.99,North,353,0.0,0.0,89,0.00,,,0.00,meteohub,2013-06-04 09:24:00,
2013-06-04 05:29:00,66.7,63.3,30.02,North,353,0.0,0.0,89,0.00,,,0.00,meteohub,2013-06-04 09:29:00,
2013-06-04 05:34:00,66.7,63.3,30.02,North,353,0.0,0.0,89,0.00,,,0.00,meteohub,2013-06-04 09:34:00,
2013-06-04 05:39:00,66.6,63.0,30.02,North,353,0.0,0.0,88,0.00,,,0.00,meteohub,2013-06-04 09:39:00,
2013-06-04 05:44:00,66.4,63.0,29.99,North,353,0.0,0.0,89,0.00,,,0.00,meteohub,2013-06-04 09:44:00,
2013-06-04 05:49:00,66.4,63.0,29.99,North,353,0.0,0.0,89,0.00,,,0.00,meteohub,2013-06-04 09:49:00,
2013-06-04 05:54:00,66.4,62.8,29.99,North,353,0.0,0.0,88,0.00,,,0.00,meteohub,2013-06-04 09:54:00,
2013-06-04 05:59:00,66.2,62.6,30.02,North,353,0.0,0.0,88,0.00,,,0.00,meteohub,2013-06-04 09:59:00,
2013-06-04 06:04:00,66.2,62.6,30.02,North,353,0.0,0.0,88,0.00,,,0.00,meteohub,2013-06-04 10:04:00,
2013-06-04 06:09:00,66.2,62.6,30.02,North,353,0.0,0.0,88,0.00,,,0.00,meteohub,2013-06-04 10:09:00,
2013-06-04 06:14:00,66.0,62.6,30.02,North,353,0.0,0.0,89,0.00,,,0.00,meteohub,2013-06-04 10:14:00,
2013-06-04 06:19:00,66.0,62.6,30.02,North,353,0.0,0.0,89,0.00,,,0.00,meteohub,2013-06-04 10:19:00,
2013-06-04 06:24:00,65.8,62.4,30.02,North,353,0.0,0.0,89,0.00,,,0.00,meteohub,2013-06-04 10:24:00,
2013-06-04 06:29:00,65.8,62.4,30.02,North,353,0.0,0.0,89,0.00,,,0.00,meteohub,2013-06-04 10:29:00,
2013-06-04 06:34:00,65.8,62.4,30.02,SW,232,0.0,0.0,89,0.00,,,0.00,meteohub,2013-06-04 10:34:00,
2013-06-04 06:39:00,65.8,62.2,30.02,SW,233,0.0,0.0,88,0.00,,,0.00,meteohub,2013-06-04 10:39:00,
2013-06-04 06:44:00,65.8,62.2,30.02,SW,233,0.0,0.0,88,0.00,,,0.00,meteohub,2013-06-04 10:44:00,
2013-06-04 06:49:00,65.8,62.2,30.02,SW,233,0.0,0.0,88,0.00,,,0.00,meteohub,2013-06-04 10:49:00,
2013-06-04 06:51:00,65.8,62.2,30.02,SW,233,0.0,0.0,88,0.00,,,0.00,meteohub,2013-06-04 10:51:00,
2013-06-04 06:57:00,65.8,62.2,30.02,SW,232,0.0,0.0,88,0.00,,,0.00,meteohub,2013-06-04 10:57:00,
2013-06-04 07:02:00,65.8,62.2,30.02,SW,233,0.0,0.0,88,0.00,,,0.00,meteohub,2013-06-04 11:02:00,
2013-06-04 07:07:00,65.8,62.2,30.02,SW,232,0.0,0.0,88,0.00,,,0.00,meteohub,2013-06-04 11:07:00,
2013-06-04 07:12:00,65.8,62.2,30.02,SW,233,0.0,3.0,88,0.00,,,0.00,meteohub,2013-06-04 11:12:00,
2013-06-04 07:17:00,65.8,62.2,30.01,SW,233,0.0,3.0,88,0.00,,,0.00,meteohub,2013-06-04 11:17:00,
2013-06-04 07:22:00,66.0,62.4,30.01,SW,233,0.0,3.0,88,0.00,,,0.00,meteohub,2013-06-04 11:22:00,
2013-06-04 07:27:00,66.0,62.4,30.01,ENE,63,4.0,4.0,88,0.00,,,0.00,meteohub,2013-06-04 11:27:00,
2013-06-04 07:32:00,66.2,62.2,30.04,SE,134,0.0,4.0,87,0.00,,,0.00,meteohub,2013-06-04 11:32:00,
2013-06-04 07:37:00,66.2,62.2,30.04,ESE,118,4.0,4.0,87,0.00,,,0.00,meteohub,2013-06-04 11:37:00,
2013-06-04 07:42:00,66.4,62.4,30.04,ENE,59,0.0,6.0,87,0.00,,,0.00,meteohub,2013-06-04 11:42:00,
2013-06-04 07:47:00,66.6,62.6,30.04,ESE,114,0.0,6.0,87,0.00,,,0.00,meteohub,2013-06-04 11:47:00,
2013-06-04 07:52:00,66.7,62.8,30.04,ENE,76,4.0,5.0,87,0.00,,,0.00,meteohub,2013-06-04 11:52:00,
2013-06-04 07:57:00,66.7,62.8,30.04,ENE,78,0.0,5.0,87,0.00,,,0.00,meteohub,2013-06-04 11:57:00,
2013-06-04 08:02:00,67.1,63.1,30.04,SSE,164,3.0,5.0,87,0.00,,,0.00,meteohub,2013-06-04 12:02:00,
2013-06-04 08:07:00,67.3,63.3,30.04,SSE,164,0.0,6.0,87,0.00,,,0.00,meteohub,2013-06-04 12:07:00,
2013-06-04 08:12:00,67.3,63.3,30.04,SSE,164,0.0,6.0,87,0.00,,,0.00,meteohub,2013-06-04 12:12:00,
2013-06-04 08:17:00,67.5,63.5,30.04,SSE,164,3.0,4.0,87,0.00,,,0.00,meteohub,2013-06-04 12:17:00,
2013-06-04 08:22:00,68.0,63.7,30.04,SSE,157,4.0,4.0,86,0.00,,,0.00,meteohub,2013-06-04 12:22:00,
2013-06-04 08:26:00,68.2,63.9,30.03,SSE,150,2.0,5.0,86,0.00,,,0.00,meteohub,2013-06-04 12:26:00,
2013-06-04 08:32:00,68.4,64.0,30.03,East,95,3.0,5.0,86,0.00,,,0.00,meteohub,2013-06-04 12:32:00,
2013-06-04 08:37:00,68.5,64.2,30.03,SSE,166,4.0,5.0,86,0.00,,,0.00,meteohub,2013-06-04 12:37:00,
2013-06-04 08:42:00,68.9,64.6,30.03,East,87,4.0,5.0,86,0.00,,,0.00,meteohub,2013-06-04 12:42:00,
2013-06-04 08:47:00,69.1,64.4,30.03,SE,134,4.0,6.0,85,0.00,,,0.00,meteohub,2013-06-04 12:47:00,
2013-06-04 08:52:00,69.4,64.8,30.03,SE,144,4.0,6.0,85,0.00,,,0.00,meteohub,2013-06-04 12:52:00,
2013-06-04 08:57:00,69.8,65.1,30.03,SE,131,4.0,6.0,85,0.00,,,0.00,meteohub,2013-06-04 12:57:00,
2013-06-04 09:02:00,70.2,65.1,30.03,SSE,159,4.0,6.0,84,0.00,,,0.00,meteohub,2013-06-04 13:02:00,
2013-06-04 09:07:00,70.5,65.5,30.03,ESE,103,4.0,6.0,84,0.00,,,0.00,meteohub,2013-06-04 13:07:00,
2013-06-04 09:12:00,70.7,65.7,30.03,East,87,6.0,6.0,84,0.00,,,0.00,meteohub,2013-06-04 13:12:00,
2013-06-04 09:17:00,71.1,66.0,30.03,NNE,21,4.0,8.0,84,0.00,,,0.00,meteohub,2013-06-04 13:17:00,
2013-06-04 09:22:00,71.4,66.4,30.03,SSE,147,7.0,8.0,84,0.00,,,0.00,meteohub,2013-06-04 13:22:00,
2013-06-04 09:27:00,72.0,66.2,30.03,SSE,162,9.0,9.0,82,0.00,,,0.00,meteohub,2013-06-04 13:27:00,
2013-06-04 09:32:00,72.1,66.4,30.06,ESE,108,4.0,9.0,82,0.00,,,0.00,meteohub,2013-06-04 13:32:00,
2013-06-04 09:37:00,72.5,66.7,30.06,ENE,78,5.0,10.0,82,0.00,,,0.00,meteohub,2013-06-04 13:37:00,
2013-06-04 09:42:00,72.5,66.4,30.06,East,90,5.0,10.0,81,0.00,,,0.00,meteohub,2013-06-04 13:42:00,
2013-06-04 09:47:00,73.0,66.9,30.06,East,99,6.0,10.0,81,0.00,,,0.00,meteohub,2013-06-04 13:47:00,
2013-06-04 09:52:00,73.0,66.9,30.06,SE,137,6.0,8.0,81,0.00,,,0.00,meteohub,2013-06-04 13:52:00,
2013-06-04 09:57:00,73.4,66.9,30.06,SE,137,4.0,8.0,80,0.00,,,0.00,meteohub,2013-06-04 13:57:00,
2013-06-04 10:02:00,73.6,67.1,30.06,East,99,5.0,8.0,80,0.00,,,0.00,meteohub,2013-06-04 14:02:00,
2013-06-04 10:07:00,73.8,67.3,30.06,SSE,148,4.0,8.0,80,0.00,,,0.00,meteohub,2013-06-04 14:07:00,
2013-06-04 10:12:00,74.1,67.6,30.06,SSE,159,5.0,6.0,80,0.00,,,0.00,meteohub,2013-06-04 14:12:00,
2013-06-04 10:17:00,74.7,68.0,30.06,SSE,157,4.0,9.0,80,0.00,,,0.00,meteohub,2013-06-04 14:17:00,
2013-06-04 10:22:00,75.0,68.0,30.06,SSE,147,6.0,9.0,79,0.00,,,0.00,meteohub,2013-06-04 14:22:00,
2013-06-04 10:27:00,75.4,68.0,30.06,East,93,4.0,9.0,78,0.00,,,0.00,meteohub,2013-06-04 14:27:00,
2013-06-04 10:32:00,75.9,68.5,30.05,SSE,158,8.0,9.0,78,0.00,,,0.00,meteohub,2013-06-04 14:32:00,
2013-06-04 10:37:00,75.9,68.5,30.05,ESE,105,3.0,10.0,78,0.00,,,0.00,meteohub,2013-06-04 14:37:00,
2013-06-04 10:42:00,76.1,68.7,30.05,SSW,196,7.0,10.0,78,0.00,,,0.00,meteohub,2013-06-04 14:42:00,
2013-06-04 10:47:00,76.3,68.9,30.05,ENE,73,5.0,10.0,78,0.00,,,0.00,meteohub,2013-06-04 14:47:00,
2013-06-04 10:52:00,76.6,69.3,30.05,SSE,153,4.0,8.0,78,0.00,,,0.00,meteohub,2013-06-04 14:52:00,
2013-06-04 10:57:00,76.8,69.4,30.05,South,178,3.0,8.0,78,0.00,,,0.00,meteohub,2013-06-04 14:57:00,
2013-06-04 11:02:00,77.2,69.4,30.05,SSE,154,6.0,8.0,77,0.00,,,0.00,meteohub,2013-06-04 15:02:00,
2013-06-04 11:07:00,77.2,69.4,30.05,SE,128,3.0,8.0,77,0.00,,,0.00,meteohub,2013-06-04 15:07:00,
2013-06-04 11:12:00,77.2,69.4,30.05,ESE,112,6.0,8.0,77,0.00,,,0.00,meteohub,2013-06-04 15:12:00,
2013-06-04 11:17:00,77.5,69.4,30.05,ESE,109,4.0,8.0,76,0.00,,,0.00,meteohub,2013-06-04 15:17:00,
2013-06-04 11:22:00,77.5,69.4,30.05,SE,127,4.0,6.0,76,0.00,,,0.00,meteohub,2013-06-04 15:22:00,
2013-06-04 11:27:00,77.9,69.8,30.05,SE,135,4.0,6.0,76,0.00,,,0.00,meteohub,2013-06-04 15:27:00,
2013-06-04 11:32:00,78.1,70.0,30.05,SSE,168,3.0,6.0,76,0.00,,,0.00,meteohub,2013-06-04 15:32:00,
2013-06-04 11:37:00,78.4,69.8,30.05,East,84,3.0,9.0,75,0.00,,,0.00,meteohub,2013-06-04 15:37:00,
2013-06-04 11:42:00,78.6,70.0,30.05,SSE,164,6.0,9.0,75,0.00,,,0.00,meteohub,2013-06-04 15:42:00,
2013-06-04 11:47:00,78.8,69.8,30.05,East,83,4.0,8.0,74,0.00,,,0.00,meteohub,2013-06-04 15:47:00,
2013-06-04 11:52:00,79.2,70.2,30.05,SE,141,4.0,8.0,74,0.00,,,0.00,meteohub,2013-06-04 15:52:00,
2013-06-04 11:57:00,79.3,70.0,30.05,ESE,108,6.0,10.0,73,0.00,,,0.00,meteohub,2013-06-04 15:57:00,
2013-06-04 12:02:00,79.3,70.0,30.05,East,98,4.0,10.0,73,0.00,,,0.00,meteohub,2013-06-04 16:02:00,
2013-06-04 12:07:00,79.7,70.3,30.05,South,183,6.0,10.0,73,0.00,,,0.00,meteohub,2013-06-04 16:07:00,
2013-06-04 12:12:00,79.9,70.5,30.05,SSE,149,8.0,9.0,73,0.00,,,0.00,meteohub,2013-06-04 16:12:00,
2013-06-04 12:17:00,80.1,70.2,30.05,SSE,160,5.0,10.0,72,0.00,,,0.00,meteohub,2013-06-04 16:17:00,
2013-06-04 12:22:00,80.2,70.3,30.05,SSW,203,4.0,10.0,72,0.00,,,0.00,meteohub,2013-06-04 16:22:00,
2013-06-04 12:27:00,80.4,70.5,30.05,ESE,117,4.0,10.0,72,0.00,,,0.00,meteohub,2013-06-04 16:27:00,
2013-06-04 12:32:00,80.4,70.2,30.05,South,170,0.0,9.0,71,0.00,,,0.00,meteohub,2013-06-04 16:32:00,
2013-06-04 12:37:00,80.8,70.5,30.05,South,182,2.0,9.0,71,0.00,,,0.00,meteohub,2013-06-04 16:37:00,
2013-06-04 12:42:00,80.6,70.0,30.05,SE,135,6.0,9.0,70,0.00,,,0.00,meteohub,2013-06-04 16:42:00,
2013-06-04 12:47:00,80.8,70.2,30.05,SSE,163,7.0,8.0,70,0.00,,,0.00,meteohub,2013-06-04 16:47:00,
2013-06-04 12:52:00,81.0,70.2,30.05,SSE,159,0.0,7.0,70,0.00,,,0.00,meteohub,2013-06-04 16:52:00,
2013-06-04 12:57:00,80.8,70.2,30.04,SSE,150,0.0,7.0,70,0.00,,,0.00,meteohub,2013-06-04 16:57:00,
2013-06-04 13:02:00,81.0,69.8,30.04,SSW,194,8.0,8.0,69,0.00,,,0.00,meteohub,2013-06-04 17:02:00,
2013-06-04 13:07:00,81.3,70.2,30.04,South,182,4.0,8.0,69,0.00,,,0.00,meteohub,2013-06-04 17:07:00,
2013-06-04 13:12:00,81.5,70.3,30.04,SSW,209,4.0,8.0,69,0.00,,,0.00,meteohub,2013-06-04 17:12:00,
2013-06-04 13:17:00,81.7,70.5,30.04,SE,143,4.0,8.0,69,0.00,,,0.00,meteohub,2013-06-04 17:17:00,
2013-06-04 13:22:00,81.7,70.2,30.04,South,182,5.0,8.0,68,0.00,,,0.00,meteohub,2013-06-04 17:22:00,
2013-06-04 13:27:00,82.0,70.3,30.04,SSE,150,5.0,8.0,68,0.00,,,0.00,meteohub,2013-06-04 17:27:00,
2013-06-04 13:32:00,82.0,70.3,30.01,East,96,3.0,7.0,68,0.00,,,0.00,meteohub,2013-06-04 17:32:00,
2013-06-04 13:37:00,81.9,70.3,30.01,ESE,114,3.0,7.0,68,0.00,,,0.00,meteohub,2013-06-04 17:37:00,
2013-06-04 13:42:00,82.0,70.3,30.01,SSE,159,6.0,6.0,68,0.00,,,0.00,meteohub,2013-06-04 17:42:00,
2013-06-04 13:47:00,81.9,69.8,30.01,SSW,210,3.0,8.0,67,0.00,,,0.00,meteohub,2013-06-04 17:47:00,
2013-06-04 13:52:00,81.7,69.6,30.01,South,180,0.0,8.0,67,0.00,,,0.00,meteohub,2013-06-04 17:52:00,
2013-06-04 13:57:00,81.7,69.6,30.01,South,179,0.0,8.0,67,0.00,,,0.00,meteohub,2013-06-04 17:57:00,
2013-06-04 14:02:00,81.9,69.8,30.01,SSE,153,4.0,5.0,67,0.00,,,0.00,meteohub,2013-06-04 18:02:00,
2013-06-04 14:07:00,81.7,69.6,30.01,East,100,6.0,8.0,67,0.00,,,0.00,meteohub,2013-06-04 18:07:00,
2013-06-04 14:12:00,81.7,69.6,30.01,NE,52,4.0,8.0,67,0.00,,,0.00,meteohub,2013-06-04 18:12:00,
2013-06-04 14:17:00,81.7,69.3,30.01,SSW,200,5.0,9.0,66,0.00,,,0.00,meteohub,2013-06-04 18:17:00,
2013-06-04 14:22:00,81.9,69.4,30.01,SE,138,0.0,9.0,66,0.00,,,0.00,meteohub,2013-06-04 18:22:00,
2013-06-04 14:27:00,81.5,69.1,30.01,East,84,0.0,8.0,66,0.00,,,0.00,meteohub,2013-06-04 18:27:00,
2013-06-04 14:32:00,81.7,69.3,30.01,South,176,0.0,8.0,66,0.00,,,0.00,meteohub,2013-06-04 18:32:00,
2013-06-04 14:37:00,81.5,69.1,30.01,SE,144,0.0,6.0,66,0.00,,,0.00,meteohub,2013-06-04 18:37:00,
2013-06-04 14:42:00,81.5,69.1,30.01,SE,133,4.0,8.0,66,0.00,,,0.00,meteohub,2013-06-04 18:42:00,
2013-06-04 14:47:00,81.5,69.1,30.01,South,183,4.0,8.0,66,0.00,,,0.00,meteohub,2013-06-04 18:47:00,
2013-06-04 14:52:00,81.5,68.5,30.01,SSE,158,3.0,8.0,65,0.00,,,0.00,meteohub,2013-06-04 18:52:00,
2013-06-04 14:57:00,81.5,68.5,30.01,East,100,3.0,6.0,65,0.00,,,0.00,meteohub,2013-06-04 18:57:00,
2013-06-04 15:02:00,81.3,68.4,30.01,SSE,150,0.0,6.0,65,0.00,,,0.00,meteohub,2013-06-04 19:02:00,
2013-06-04 15:07:00,81.5,68.2,30.01,SSE,150,8.0,8.0,64,0.00,,,0.00,meteohub,2013-06-04 19:07:00,
2013-06-04 15:12:00,81.3,68.0,30.01,SSW,196,0.0,8.0,64,0.00,,,0.00,meteohub,2013-06-04 19:12:00,
2013-06-04 15:17:00,81.1,67.8,30.01,East,98,0.0,8.0,64,0.00,,,0.00,meteohub,2013-06-04 19:17:00,
2013-06-04 15:22:00,81.3,68.0,30.01,SSW,208,2.0,8.0,64,0.00,,,0.00,meteohub,2013-06-04 19:22:00,
2013-06-04 15:27:00,81.1,67.8,30.01,South,173,0.0,6.0,64,0.00,,,0.00,meteohub,2013-06-04 19:27:00,
2013-06-04 15:32:00,81.0,67.1,30.01,SSE,153,0.0,5.0,63,0.00,,,0.00,meteohub,2013-06-04 19:32:00,
2013-06-04 15:37:00,81.0,67.1,30.01,SSE,153,0.0,6.0,63,0.00,,,0.00,meteohub,2013-06-04 19:37:00,
2013-06-04 15:42:00,80.6,66.9,30.01,NE,37,4.0,6.0,63,0.00,,,0.00,meteohub,2013-06-04 19:42:00,
2013-06-04 15:47:00,80.6,66.9,29.98,NE,48,0.0,6.0,63,0.00,,,0.00,meteohub,2013-06-04 19:47:00,
2013-06-04 15:52:00,80.4,67.1,29.98,South,171,5.0,6.0,64,0.00,,,0.00,meteohub,2013-06-04 19:52:00,
2013-06-04 15:57:00,80.4,66.7,29.98,SSE,165,0.0,6.0,63,0.00,,,0.00,meteohub,2013-06-04 19:57:00,
2013-06-04 16:02:00,80.4,66.7,29.98,SSE,156,4.0,6.0,63,0.00,,,0.00,meteohub,2013-06-04 20:02:00,
2013-06-04 16:08:00,80.2,66.6,29.98,SSE,159,0.0,6.0,63,0.00,,,0.00,meteohub,2013-06-04 20:08:00,
2013-06-04 16:13:00,80.1,66.4,30.01,SE,140,0.0,6.0,63,0.00,,,0.00,meteohub,2013-06-04 20:13:00,
2013-06-04 16:18:00,80.1,66.4,30.01,South,180,3.0,4.0,63,0.00,,,0.00,meteohub,2013-06-04 20:18:00,
2013-06-04 16:23:00,79.9,66.2,30.01,SSE,162,0.0,4.0,63,0.00,,,0.00,meteohub,2013-06-04 20:23:00,
2013-06-04 16:28:00,79.9,66.2,30.01,SSE,166,0.0,4.0,63,0.00,,,0.00,meteohub,2013-06-04 20:28:00,
2013-06-04 16:33:00,79.7,66.0,30.01,SSE,166,0.0,4.0,63,0.00,,,0.00,meteohub,2013-06-04 20:33:00,
2013-06-04 16:38:00,79.7,66.0,30.01,SSW,194,3.0,4.0,63,0.00,,,0.00,meteohub,2013-06-04 20:38:00,
2013-06-04 16:43:00,79.7,66.0,30.01,SSE,167,5.0,5.0,63,0.00,,,0.00,meteohub,2013-06-04 20:43:00,
2013-06-04 16:48:00,79.7,66.0,29.98,SSE,167,3.0,6.0,63,0.00,,,0.00,meteohub,2013-06-04 20:48:00,
2013-06-04 16:53:00,79.7,66.0,29.98,SSE,151,0.0,7.0,63,0.00,,,0.00,meteohub,2013-06-04 20:53:00,
2013-06-04 16:58:00,79.7,65.5,29.98,ESE,114,0.0,7.0,62,0.00,,,0.00,meteohub,2013-06-04 20:58:00,
2013-06-04 17:03:00,79.5,65.3,29.98,SE,139,2.0,7.0,62,0.00,,,0.00,meteohub,2013-06-04 21:03:00,
2013-06-04 17:08:00,79.3,65.1,29.98,SE,139,0.0,4.0,62,0.00,,,0.00,meteohub,2013-06-04 21:08:00,
2013-06-04 17:13:00,79.3,65.1,29.98,SSE,168,0.0,4.0,62,0.00,,,0.00,meteohub,2013-06-04 21:13:00,
2013-06-04 17:18:00,79.3,65.1,29.98,SSE,167,3.0,4.0,62,0.00,,,0.00,meteohub,2013-06-04 21:18:00,
2013-06-04 17:23:00,79.3,65.1,29.98,SE,138,0.0,4.0,62,0.00,,,0.00,meteohub,2013-06-04 21:23:00,
2013-06-04 17:28:00,79.3,65.1,29.98,SE,127,2.0,6.0,62,0.00,,,0.00,meteohub,2013-06-04 21:28:00,
2013-06-04 17:33:00,79.2,64.9,29.98,SSE,158,0.0,6.0,62,0.00,,,0.00,meteohub,2013-06-04 21:33:00,
2013-06-04 17:38:00,79.2,64.9,29.98,SSE,153,3.0,6.0,62,0.00,,,0.00,meteohub,2013-06-04 21:38:00,
2013-06-04 17:43:00,79.2,64.6,29.98,SE,126,5.0,5.0,61,0.00,,,0.00,meteohub,2013-06-04 21:43:00,
2013-06-04 17:48:00,79.2,64.6,29.98,ESE,116,4.0,6.0,61,0.00,,,0.00,meteohub,2013-06-04 21:48:00,
2013-06-04 17:53:00,79.0,64.4,29.98,SSE,156,6.0,6.0,61,0.00,,,0.00,meteohub,2013-06-04 21:53:00,
2013-06-04 17:58:00,79.0,64.4,29.98,SE,138,6.0,7.0,61,0.00,,,0.00,meteohub,2013-06-04 21:58:00,
2013-06-04 18:03:00,79.0,63.9,29.98,SE,129,4.0,8.0,60,0.00,,,0.00,meteohub,2013-06-04 22:03:00,
2013-06-04 18:08:00,78.8,63.7,29.98,SE,136,4.0,8.0,60,0.00,,,0.00,meteohub,2013-06-04 22:08:00,
2013-06-04 18:13:00,78.8,63.7,29.98,ESE,113,3.0,8.0,60,0.00,,,0.00,meteohub,2013-06-04 22:13:00,
2013-06-04 18:18:00,78.8,63.7,29.98,ENE,78,3.0,6.0,60,0.00,,,0.00,meteohub,2013-06-04 22:18:00,
2013-06-04 18:23:00,78.6,64.0,29.98,SE,138,7.0,7.0,61,0.00,,,0.00,meteohub,2013-06-04 22:23:00,
2013-06-04 18:28:00,78.4,63.9,29.98,SSE,156,0.0,7.0,61,0.00,,,0.00,meteohub,2013-06-04 22:28:00,
2013-06-04 18:33:00,78.4,63.9,29.98,SE,136,2.0,7.0,61,0.00,,,0.00,meteohub,2013-06-04 22:33:00,
2013-06-04 18:38:00,78.3,63.3,29.98,SE,124,0.0,7.0,60,0.00,,,0.00,meteohub,2013-06-04 22:38:00,
2013-06-04 18:43:00,78.3,63.3,29.98,SE,139,4.0,6.0,60,0.00,,,0.00,meteohub,2013-06-04 22:43:00,
2013-06-04 18:48:00,78.1,63.1,29.98,SE,135,4.0,6.0,60,0.00,,,0.00,meteohub,2013-06-04 22:48:00,
2013-06-04 18:53:00,78.1,63.1,29.98,SSE,152,0.0,4.0,60,0.00,,,0.00,meteohub,2013-06-04 22:53:00,
2013-06-04 18:58:00,78.1,63.1,29.98,ESE,119,3.0,5.0,60,0.00,,,0.00,meteohub,2013-06-04 22:58:00,
2013-06-04 19:03:00,77.9,63.0,29.98,SSE,159,4.0,5.0,60,0.00,,,0.00,meteohub,2013-06-04 23:03:00,
2013-06-04 19:08:00,77.9,63.0,29.98,SE,144,0.0,5.0,60,0.00,,,0.00,meteohub,2013-06-04 23:08:00,
2013-06-04 19:13:00,77.9,63.0,30.01,SSE,168,2.0,5.0,60,0.00,,,0.00,meteohub,2013-06-04 23:13:00,
2013-06-04 19:18:00,77.9,63.0,30.01,SE,143,0.0,5.0,60,0.00,,,0.00,meteohub,2013-06-04 23:18:00,
2013-06-04 19:23:00,77.7,62.8,30.01,SSE,153,3.0,6.0,60,0.00,,,0.00,meteohub,2013-06-04 23:23:00,
2013-06-04 19:28:00,77.7,62.8,30.01,SE,127,4.0,6.0,60,0.00,,,0.00,meteohub,2013-06-04 23:28:00,
2013-06-04 19:33:00,77.7,62.8,30.01,SE,143,0.0,6.0,60,0.00,,,0.00,meteohub,2013-06-04 23:33:00,
2013-06-04 19:38:00,77.5,62.6,30.01,SSE,156,3.0,6.0,60,0.00,,,0.00,meteohub,2013-06-04 23:38:00,
2013-06-04 19:43:00,77.5,62.6,30.01,SSE,159,3.0,6.0,60,0.00,,,0.00,meteohub,2013-06-04 23:43:00,
2013-06-04 19:48:00,77.4,62.4,30.01,SSE,156,0.0,6.0,60,0.00,,,0.00,meteohub,2013-06-04 23:48:00,
2013-06-04 19:53:00,77.4,62.4,30.01,SSE,157,2.0,4.0,60,0.00,,,0.00,meteohub,2013-06-04 23:53:00,
2013-06-04 19:58:00,77.4,62.4,30.02,SSE,157,0.0,4.0,60,0.00,,,0.00,meteohub,2013-06-04 23:58:00,
2013-06-04 20:03:00,77.2,62.2,30.02,SSE,156,0.0,4.0,60,0.00,,,0.00,meteohub,2013-06-05 00:03:00,
2013-06-04 20:08:00,77.0,62.1,30.02,SE,125,3.0,5.0,60,0.00,,,0.00,meteohub,2013-06-05 00:08:00,
2013-06-04 20:13:00,77.0,62.1,30.02,SE,131,0.0,5.0,60,0.00,,,0.00,meteohub,2013-06-05 00:13:00,
2013-06-04 20:18:00,76.8,62.4,30.02,SE,131,0.0,4.0,61,0.00,,,0.00,meteohub,2013-06-05 00:18:00,
2013-06-04 20:23:00,76.8,62.4,30.02,SE,131,0.0,4.0,61,0.00,,,0.00,meteohub,2013-06-05 00:23:00,
2013-06-04 20:28:00,76.6,62.2,30.02,SE,131,0.0,2.0,61,0.00,,,0.00,meteohub,2013-06-05 00:28:00,
2013-06-04 20:33:00,76.6,62.2,30.02,SE,131,0.0,2.0,61,0.00,,,0.00,meteohub,2013-06-05 00:33:00,
2013-06-04 20:38:00,76.5,62.1,30.02,SE,131,0.0,0.0,61,0.00,,,0.00,meteohub,2013-06-05 00:38:00,
2013-06-04 20:43:00,76.5,62.4,30.02,SE,131,0.0,0.0,62,0.00,,,0.00,meteohub,2013-06-05 00:43:00,
2013-06-04 20:48:00,76.3,62.2,30.02,SE,131,0.0,0.0,62,0.00,,,0.00,meteohub,2013-06-05 00:48:00,
2013-06-04 20:53:00,76.1,62.1,30.02,SE,131,0.0,0.0,62,0.00,,,0.00,meteohub,2013-06-05 00:53:00,
2013-06-04 20:58:00,75.9,61.9,30.03,SE,131,0.0,0.0,62,0.00,,,0.00,meteohub,2013-06-05 00:58:00,
2013-06-04 21:03:00,75.7,62.2,30.03,SE,131,0.0,0.0,63,0.00,,,0.00,meteohub,2013-06-05 01:03:00,
2013-06-04 21:09:00,75.7,62.2,30.03,SE,131,0.0,0.0,63,0.00,,,0.00,meteohub,2013-06-05 01:09:00,
2013-06-04 21:13:00,75.6,62.1,30.06,SE,131,0.0,0.0,63,0.00,,,0.00,meteohub,2013-06-05 01:13:00,
2013-06-04 21:19:00,75.4,62.4,30.06,SE,131,0.0,0.0,64,0.00,,,0.00,meteohub,2013-06-05 01:19:00,
2013-06-04 21:24:00,75.2,62.2,30.06,SE,131,0.0,0.0,64,0.00,,,0.00,meteohub,2013-06-05 01:24:00,
2013-06-04 21:29:00,75.0,62.4,30.06,SE,131,0.0,0.0,65,0.00,,,0.00,meteohub,2013-06-05 01:29:00,
2013-06-04 21:34:00,75.0,62.4,30.06,SE,131,0.0,0.0,65,0.00,,,0.00,meteohub,2013-06-05 01:34:00,
2013-06-04 21:39:00,74.8,62.2,30.06,SE,131,0.0,0.0,65,0.00,,,0.00,meteohub,2013-06-05 01:39:00,
2013-06-04 21:44:00,74.7,62.1,30.06,SE,131,0.0,0.0,65,0.00,,,0.00,meteohub,2013-06-05 01:44:00,
2013-06-04 21:49:00,74.7,62.1,30.06,SE,131,0.0,0.0,65,0.00,,,0.00,meteohub,2013-06-05 01:49:00,
2013-06-04 21:54:00,74.5,61.9,30.06,SE,131,0.0,0.0,65,0.00,,,0.00,meteohub,2013-06-05 01:54:00,
2013-06-04 21:59:00,74.5,61.9,30.06,SE,130,0.0,0.0,65,0.00,,,0.00,meteohub,2013-06-05 01:59:00,
2013-06-04 22:04:00,74.5,61.9,30.06,SE,130,0.0,0.0,65,0.00,,,0.00,meteohub,2013-06-05 02:04:00,
2013-06-04 22:09:00,74.3,61.7,30.06,SE,130,0.0,0.0,65,0.00,,,0.00,meteohub,2013-06-05 02:09:00,
2013-06-04 22:14:00,74.3,61.7,30.06,SE,130,3.0,0.0,65,0.00,,,0.00,meteohub,2013-06-05 02:14:00,
2013-06-04 22:19:00,74.1,61.5,30.06,SE,131,0.0,4.0,65,0.00,,,0.00,meteohub,2013-06-05 02:19:00,
2013-06-04 22:24:00,74.1,61.5,30.06,SE,130,3.0,4.0,65,0.00,,,0.00,meteohub,2013-06-05 02:24:00,
2013-06-04 22:29:00,73.9,61.3,30.06,SE,130,0.0,4.0,65,0.00,,,0.00,meteohub,2013-06-05 02:29:00,
2013-06-04 22:34:00,73.9,61.3,30.06,SE,130,0.0,3.0,65,0.00,,,0.00,meteohub,2013-06-05 02:34:00,
2013-06-04 22:39:00,73.9,61.3,30.06,SE,131,0.0,3.0,65,0.00,,,0.00,meteohub,2013-06-05 02:39:00,
2013-06-04 22:44:00,73.8,61.3,30.09,ESE,113,4.0,4.0,65,0.00,,,0.00,meteohub,2013-06-05 02:44:00,
2013-06-04 22:49:00,73.8,61.3,30.09,East,98,4.0,4.0,65,0.00,,,0.00,meteohub,2013-06-05 02:49:00,
2013-06-04 22:54:00,73.6,61.2,30.09,East,100,0.0,4.0,65,0.00,,,0.00,meteohub,2013-06-05 02:54:00,
2013-06-04 22:59:00,73.6,61.5,30.06,East,90,3.0,5.0,66,0.00,,,0.00,meteohub,2013-06-05 02:59:00,
2013-06-04 23:04:00,73.4,61.3,30.06,East,101,5.0,5.0,66,0.00,,,0.00,meteohub,2013-06-05 03:04:00,
2013-06-04 23:09:00,73.4,61.3,30.06,East,94,4.0,5.0,66,0.00,,,0.00,meteohub,2013-06-05 03:09:00,
2013-06-04 23:14:00,73.2,61.2,30.06,East,90,3.0,5.0,66,0.00,,,0.00,meteohub,2013-06-05 03:14:00,
2013-06-04 23:19:00,73.2,61.2,30.06,East,89,4.0,5.0,66,0.00,,,0.00,meteohub,2013-06-05 03:19:00,
2013-06-04 23:24:00,73.0,61.5,30.06,ENE,70,6.0,6.0,67,0.00,,,0.00,meteohub,2013-06-05 03:24:00,
2013-06-04 23:29:00,73.0,61.5,30.06,ESE,115,0.0,6.0,67,0.00,,,0.00,meteohub,2013-06-05 03:29:00,
2013-06-04 23:34:00,72.9,61.3,30.06,ENE,66,0.0,6.0,67,0.00,,,0.00,meteohub,2013-06-05 03:34:00,
2013-06-04 23:39:00,72.9,61.3,30.06,ENE,66,0.0,6.0,67,0.00,,,0.00,meteohub,2013-06-05 03:39:00,
2013-06-04 23:44:00,72.7,61.2,30.09,ENE,66,0.0,4.0,67,0.00,,,0.00,meteohub,2013-06-05 03:44:00,
2013-06-04 23:49:00,72.7,61.2,30.09,ENE,66,0.0,3.0,67,0.00,,,0.00,meteohub,2013-06-05 03:49:00,
2013-06-04 23:54:00,72.7,61.2,30.09,ENE,66,0.0,0.0,67,0.00,,,0.00,meteohub,2013-06-05 03:54:00,
2013-06-04 23:59:00,72.5,61.0,30.09,ENE,66,0.0,0.0,67,0.00,,,0.00,meteohub,2013-06-05 03:59:00,